(°C)
(°C)
J
J
JJV
JJV
J
J
J
(km/h)
6-17
6-17
6-17
6-19
5-14
5-15
5-13
(mm)
0
0
0
0
0
0
0
(%)
0
0
0
0
0
0
0

Sluneční výška

/ -22.3°
sun-icon
UV 1
06:14
16:41
Dorůstající měsíc (144°)
16:19
01:43

METAR pro 55.61°S 49.28°V (UWKD)

Čas Podmínky Teplota/
Rosný bod
Vítr Viditelnost Počasí Oblaky Tlak Změna Nezpracované
VFR 7°C / 1°C 180º 6kt >10km - Clouds and Visibility OK 1014 No Significant change UWKD 171600Z 18003MPS CAVOK 07/01 Q1014 R29/70D NOSIG RMK QFE749/0999
VFR 9°C / 2°C 180º 8kt >10km - Clouds and Visibility OK 1014 No Significant change UWKD 171530Z 18004MPS CAVOK 09/02 Q1014 R29/CLRD70 NOSIG RMK QFE749/0999
VFR 9°C / 2°C 180º 8kt >10km - Clouds and Visibility OK 1014 No Significant change UWKD 171500Z 18004MPS CAVOK 09/02 Q1014 R29/CLRD70 NOSIG RMK QFE749/0999
VFR 9°C / 2°C 180º 8kt >10km - Broken Clouds 5000ft 1014 No Significant change UWKD 171430Z 18004MPS 9999 BKN050 09/02 Q1014 R29/CLRD70 NOSIG RMK QFE749/0999
VFR 10°C / 2°C 190º 8kt >10km - Clouds and Visibility OK 1014 No Significant change UWKD 171400Z 19004MPS CAVOK 10/02 Q1014 R29/70D NOSIG RMK QFE749/0999
VFR 12°C / 2°C 200º 8kt >10km - Clouds and Visibility OK 1014 No Significant change UWKD 171330Z 20004MPS CAVOK 12/02 Q1014 R29/CLRD70 NOSIG RMK QFE749/0999
VFR 12°C / 2°C 220º 8kt >10km - Clouds and Visibility OK 1014 No Significant change UWKD 171300Z 22004MPS CAVOK 12/02 Q1014 R29/CLRD70 NOSIG RMK QFE749/0999
VFR 12°C / 2°C 230º 8kt >10km - Few Clouds 4000ft 1014 No Significant change UWKD 171230Z 23004MPS 9999 FEW040 12/02 Q1014 R29/70D NOSIG RMK QFE749/0999
VFR 13°C / 2°C 230º 8kt >10km - Few Clouds 4000ft 1014 No Significant change UWKD 171200Z 23004MPS 9999 FEW040 13/02 Q1014 R29/CLRD70 NOSIG RMK QFE749/0999
VFR 13°C / 2°C 220º variable 200º to 260º 10kt >10km - Few Clouds 4000ft 1014 No Significant change UWKD 171130Z 22005MPS 200V260 9999 FEW040 13/02 Q1014 R29/CLRD70 NOSIG RMK QFE749/0999
VFR 13°C / 2°C 220º 10kt >10km - Few Clouds 4000ft 1014 No Significant change UWKD 171100Z 22005MPS 9999 FEW040 13/02 Q1014 R29/70D NOSIG RMK QFE749/0999
VFR 13°C / 2°C 220º variable 190º to 250º 10kt >10km - Few Clouds 3300ft 1014 No Significant change UWKD 171030Z 22005MPS 190V250 9999 FEW033 13/02 Q1014 R29/70D NOSIG RMK QFE750/1000
VFR 13°C / 2°C 240º 10kt >10km - Few Clouds 3300ft 1015 No Significant change UWKD 171000Z 24005MPS 9999 FEW033 13/02 Q1015 R29/CLRD70 NOSIG RMK QFE750/1000
VFR 12°C / 2°C 230º 8kt >10km - Clouds and Visibility OK 1015 No Significant change UWKD 170930Z 23004MPS CAVOK 12/02 Q1015 R29/70D NOSIG RMK QFE750/1000
VFR 12°C / 2°C 230º variable 190º to 270º 10kt >10km - Clouds and Visibility OK 1015 No Significant change UWKD 170900Z 23005MPS 190V270 CAVOK 12/02 Q1015 R29/CLRD70 NOSIG RMK QFE750/1000
VFR 12°C / 2°C 250º 12kt. Wind Shear present on Runway 29. >10km - Clouds and Visibility OK 1015 No Significant change UWKD 170830Z 25006MPS CAVOK 12/02 Q1015 WS R29 R29/CLRD70 NOSIG RMK QFE750/1000
VFR 12°C / 2°C 220º variable 180º to 260º 8kt. Wind Shear present on Runway 29. >10km - Clouds and Visibility OK 1015 No Significant change UWKD 170800Z 22004MPS 180V260 CAVOK 12/02 Q1015 WS R29 R29/CLRD70 NOSIG RMK QFE750/1000
VFR 11°C / 1°C 230º variable 190º to 250º 8kt. Wind Shear present on Runway 29. >10km - Clouds and Visibility OK 1015 No Significant change UWKD 170730Z 23004MPS 190V250 CAVOK 11/01 Q1015 WS R29 R29/CLRD70 NOSIG RMK QFE750/1000
VFR 10°C / 1°C 230º 10kt. Wind Shear present on Runway 29. >10km - Clouds and Visibility OK 1015 No Significant change UWKD 170700Z 23005MPS CAVOK 10/01 Q1015 WS R29 R29/CLRD70 NOSIG RMK QFE750/1001
VFR 10°C / 1°C 210º 10kt >10km - Clouds and Visibility OK 1015 No Significant change UWKD 170630Z 21005MPS CAVOK 10/01 Q1015 R11/CLRD70 NOSIG RMK QFE751/1002
VFR 9°C / 0°C 210º 10kt >10km - Clouds and Visibility OK 1015 No Significant change UWKD 170600Z 21005MPS CAVOK 09/00 Q1015 R11/CLRD70 NOSIG RMK QFE751/1002
VFR 8°C / 0°C 200º 8kt >10km - Clouds and Visibility OK 1015 No Significant change UWKD 170530Z 20004MPS CAVOK 08/00 Q1015 R11/CLRD70 NOSIG RMK QFE751/1002
VFR 7°C / 0°C 200º 10kt >10km - Clouds and Visibility OK 1015 No Significant change UWKD 170500Z 20005MPS CAVOK 07/00 Q1015 R11/CLRD70 NOSIG RMK QFE751/1002
VFR 7°C / 0°C 200º 8kt >10km - Clouds and Visibility OK 1015 No Significant change UWKD 170430Z 20004MPS CAVOK 07/M00 Q1015 R11/CLRD70 NOSIG RMK QFE751/1002

VFR

7°C / 1°C

[Víc]
Vítr 180º 6kt
Viditelnost >10km
Počasí -
Oblaky Clouds and Visibility OK
Tlak 1014
Změna No Significant change
Nezpracované UWKD 171600Z 18003MPS CAVOK 07/01 Q1014 R29/70D NOSIG RMK QFE749/0999

VFR

9°C / 2°C

[Víc]
Vítr 180º 8kt
Viditelnost >10km
Počasí -
Oblaky Clouds and Visibility OK
Tlak 1014
Změna No Significant change
Nezpracované UWKD 171530Z 18004MPS CAVOK 09/02 Q1014 R29/CLRD70 NOSIG RMK QFE749/0999

VFR

9°C / 2°C

[Víc]
Vítr 180º 8kt
Viditelnost >10km
Počasí -
Oblaky Clouds and Visibility OK
Tlak 1014
Změna No Significant change
Nezpracované UWKD 171500Z 18004MPS CAVOK 09/02 Q1014 R29/CLRD70 NOSIG RMK QFE749/0999

VFR

9°C / 2°C

[Víc]
Vítr 180º 8kt
Viditelnost >10km
Počasí -
Oblaky Broken Clouds 5000ft
Tlak 1014
Změna No Significant change
Nezpracované UWKD 171430Z 18004MPS 9999 BKN050 09/02 Q1014 R29/CLRD70 NOSIG RMK QFE749/0999

VFR

10°C / 2°C

[Víc]
Vítr 190º 8kt
Viditelnost >10km
Počasí -
Oblaky Clouds and Visibility OK
Tlak 1014
Změna No Significant change
Nezpracované UWKD 171400Z 19004MPS CAVOK 10/02 Q1014 R29/70D NOSIG RMK QFE749/0999

VFR

12°C / 2°C

[Víc]
Vítr 200º 8kt
Viditelnost >10km
Počasí -
Oblaky Clouds and Visibility OK
Tlak 1014
Změna No Significant change
Nezpracované UWKD 171330Z 20004MPS CAVOK 12/02 Q1014 R29/CLRD70 NOSIG RMK QFE749/0999

VFR

12°C / 2°C

[Víc]
Vítr 220º 8kt
Viditelnost >10km
Počasí -
Oblaky Clouds and Visibility OK
Tlak 1014
Změna No Significant change
Nezpracované UWKD 171300Z 22004MPS CAVOK 12/02 Q1014 R29/CLRD70 NOSIG RMK QFE749/0999

VFR

12°C / 2°C

[Víc]
Vítr 230º 8kt
Viditelnost >10km
Počasí -
Oblaky Few Clouds 4000ft
Tlak 1014
Změna No Significant change
Nezpracované UWKD 171230Z 23004MPS 9999 FEW040 12/02 Q1014 R29/70D NOSIG RMK QFE749/0999

VFR

13°C / 2°C

[Víc]
Vítr 230º 8kt
Viditelnost >10km
Počasí -
Oblaky Few Clouds 4000ft
Tlak 1014
Změna No Significant change
Nezpracované UWKD 171200Z 23004MPS 9999 FEW040 13/02 Q1014 R29/CLRD70 NOSIG RMK QFE749/0999

VFR

13°C / 2°C

[Víc]
Vítr 220º variable 200º to 260º 10kt
Viditelnost >10km
Počasí -
Oblaky Few Clouds 4000ft
Tlak 1014
Změna No Significant change
Nezpracované UWKD 171130Z 22005MPS 200V260 9999 FEW040 13/02 Q1014 R29/CLRD70 NOSIG RMK QFE749/0999

VFR

13°C / 2°C

[Víc]
Vítr 220º 10kt
Viditelnost >10km
Počasí -
Oblaky Few Clouds 4000ft
Tlak 1014
Změna No Significant change
Nezpracované UWKD 171100Z 22005MPS 9999 FEW040 13/02 Q1014 R29/70D NOSIG RMK QFE749/0999

VFR

13°C / 2°C

[Víc]
Vítr 220º variable 190º to 250º 10kt
Viditelnost >10km
Počasí -
Oblaky Few Clouds 3300ft
Tlak 1014
Změna No Significant change
Nezpracované UWKD 171030Z 22005MPS 190V250 9999 FEW033 13/02 Q1014 R29/70D NOSIG RMK QFE750/1000

VFR

13°C / 2°C

[Víc]
Vítr 240º 10kt
Viditelnost >10km
Počasí -
Oblaky Few Clouds 3300ft
Tlak 1015
Změna No Significant change
Nezpracované UWKD 171000Z 24005MPS 9999 FEW033 13/02 Q1015 R29/CLRD70 NOSIG RMK QFE750/1000

VFR

12°C / 2°C

[Víc]
Vítr 230º 8kt
Viditelnost >10km
Počasí -
Oblaky Clouds and Visibility OK
Tlak 1015
Změna No Significant change
Nezpracované UWKD 170930Z 23004MPS CAVOK 12/02 Q1015 R29/70D NOSIG RMK QFE750/1000

VFR

12°C / 2°C

[Víc]
Vítr 230º variable 190º to 270º 10kt
Viditelnost >10km
Počasí -
Oblaky Clouds and Visibility OK
Tlak 1015
Změna No Significant change
Nezpracované UWKD 170900Z 23005MPS 190V270 CAVOK 12/02 Q1015 R29/CLRD70 NOSIG RMK QFE750/1000

VFR

12°C / 2°C

[Víc]
Vítr 250º 12kt. Wind Shear present on Runway 29.
Viditelnost >10km
Počasí -
Oblaky Clouds and Visibility OK
Tlak 1015
Změna No Significant change
Nezpracované UWKD 170830Z 25006MPS CAVOK 12/02 Q1015 WS R29 R29/CLRD70 NOSIG RMK QFE750/1000

VFR

12°C / 2°C

[Víc]
Vítr 220º variable 180º to 260º 8kt. Wind Shear present on Runway 29.
Viditelnost >10km
Počasí -
Oblaky Clouds and Visibility OK
Tlak 1015
Změna No Significant change
Nezpracované UWKD 170800Z 22004MPS 180V260 CAVOK 12/02 Q1015 WS R29 R29/CLRD70 NOSIG RMK QFE750/1000

VFR

11°C / 1°C

[Víc]
Vítr 230º variable 190º to 250º 8kt. Wind Shear present on Runway 29.
Viditelnost >10km
Počasí -
Oblaky Clouds and Visibility OK
Tlak 1015
Změna No Significant change
Nezpracované UWKD 170730Z 23004MPS 190V250 CAVOK 11/01 Q1015 WS R29 R29/CLRD70 NOSIG RMK QFE750/1000

VFR

10°C / 1°C

[Víc]
Vítr 230º 10kt. Wind Shear present on Runway 29.
Viditelnost >10km
Počasí -
Oblaky Clouds and Visibility OK
Tlak 1015
Změna No Significant change
Nezpracované UWKD 170700Z 23005MPS CAVOK 10/01 Q1015 WS R29 R29/CLRD70 NOSIG RMK QFE750/1001

VFR

10°C / 1°C

[Víc]
Vítr 210º 10kt
Viditelnost >10km
Počasí -
Oblaky Clouds and Visibility OK
Tlak 1015
Změna No Significant change
Nezpracované UWKD 170630Z 21005MPS CAVOK 10/01 Q1015 R11/CLRD70 NOSIG RMK QFE751/1002

VFR

9°C / 0°C

[Víc]
Vítr 210º 10kt
Viditelnost >10km
Počasí -
Oblaky Clouds and Visibility OK
Tlak 1015
Změna No Significant change
Nezpracované UWKD 170600Z 21005MPS CAVOK 09/00 Q1015 R11/CLRD70 NOSIG RMK QFE751/1002

VFR

8°C / 0°C

[Víc]
Vítr 200º 8kt
Viditelnost >10km
Počasí -
Oblaky Clouds and Visibility OK
Tlak 1015
Změna No Significant change
Nezpracované UWKD 170530Z 20004MPS CAVOK 08/00 Q1015 R11/CLRD70 NOSIG RMK QFE751/1002

VFR

7°C / 0°C

[Víc]
Vítr 200º 10kt
Viditelnost >10km
Počasí -
Oblaky Clouds and Visibility OK
Tlak 1015
Změna No Significant change
Nezpracované UWKD 170500Z 20005MPS CAVOK 07/00 Q1015 R11/CLRD70 NOSIG RMK QFE751/1002

VFR

7°C / 0°C

[Víc]
Vítr 200º 8kt
Viditelnost >10km
Počasí -
Oblaky Clouds and Visibility OK
Tlak 1015
Změna No Significant change
Nezpracované UWKD 170430Z 20004MPS CAVOK 07/M00 Q1015 R11/CLRD70 NOSIG RMK QFE751/1002

TAF pro 55.61°S 49.28°V (UWKD)

From till


Maximum Temperature 11ºC on . Minimum Temperature 5ºC on .
From till Wind 200º 6kt. Visibility 10km or more. Scattered Clouds 3000ft.

Nezpracované: TAF UWKD 171400Z 1715/1815 20003MPS 9999 SCT030 TX11/1811Z TN05/1803Z

Aktuální snímky ze satelitu a srážky pro 55.61°S 49.28°V

Značka polohy je umístěna na 55.61°S 49.28°V. [Víc]

Satelitní snímek v reálném čase kombinuje viditelné světlo během dne s infračerveným zářením během noci. V noci není obraz tmavý, protože infračervené záření dokáže detekovat teplotní rozdíly. Nízká oblačnost a mlha se bohužel těžko odlišují od pozemních teplot, a proto mohou být během noci téměř neviditelné. Satelitní snímky z Meteosatu pro Evropu jsou aktualizovány v reálném čase každých 5 minut. Snímky z GOES-16/GOES-17 (Severní a Jižní Amerika) a Himawari (Asie) jsou aktualizovány) každých 10 minut.

Copyright 2021 EUMETSAT / meteoblue. / Copyright 2021 meteoblue

Radar a krátkodobá předpověď srážek pro 55.61°S 49.28°V

Mrholení
Slabé
Mírná
Silné
Velmi silné
Kroupy

Značka lokality je umístněna na 55.61°S 49.28°V. Tato animace ukazuje srážky zaznamenané radarem za poslední hodinu a také 1h předpověď. Mrholení nebo slabé sněžení může být pro radar neviditelné. Intenzita srážek je barevně označena od světle modré po oranžovou.